Weather History for Opa Locka, FL

Change the Weather History Date:

Friday, March 28, 2014

  Actual Average Record
Temperature  
Mean Temperature 76 °F -  
Max Temperature 81 °F 81 °F 89 °F (1984)
Min Temperature 72 °F 64 °F 48 °F (1966)
Cooling Degree Days 11    
Growing Degree Days 26 (Base 50)    
Moisture  
Dew Point 63 °F    
Average Humidity 66    
Maximum Humidity 81    
Minimum Humidity 54    
Precipitation  
Precipitation 0.00 in - - ()
Sea Level Pressure  
Sea Level Pressure 30.13 in    
Wind  
Wind Speed 15 mph (ESE)    
Max Wind Speed 23 mph    
Max Gust Speed 29 mph    
Visibility 10 miles    
Events      
Averages and records for this station are not official NWS values.
T = Trace of Precipitation, MM = Missing Value Source: NWS Daily Summary

Daily Weather History Graph

Daily Weather History Graph

Search for Another Location

Airport:

Trip Planner

Search our weather history database for the weather conditions in past years. The results will help you decide how hot, cold, wet, or windy it might be!

Date:

Astronomy

Mar. 28, 2014 Rise Set
Actual Time 7:16 AM EDT 7:36 PM EDT
Civil Twilight 6:53 AM EDT 7:59 PM EDT
Nautical Twilight 6:26 AM EDT 8:26 PM EDT
Astronomical Twilight 5:59 AM EDT 8:53 PM EDT
Moon 5:33 AM EDT (3/28) 5:41 PM EDT (3/28)
Length of Visible Light 13h 05m
Length of Day
12h 19m
Waning Crescent, 6% of the Moon is Illuminated
Mar 28
Waning Crescent
Mar 30
New
Apr 7
First Quarter
Apr 15
Full
Apr 22
Last Quarter

Hourly Weather History & Observations

Time (EDT) Temp. Heat Index Dew Point Humidity Pressure Visibility Wind Dir Wind Speed Gust Speed Precip Events Conditions
12:53 AM 72.0 °F - 59.0 °F 64% 30.18 in 10.0 mi SE 18.4 mph 27.6 mph N/A   Clear
1:53 AM 72.0 °F - 59.0 °F 64% 30.17 in 10.0 mi SE 15.0 mph 23.0 mph N/A   Partly Cloudy
2:53 AM 72.0 °F - 59.0 °F 64% 30.15 in 10.0 mi SE 13.8 mph - N/A   Partly Cloudy
3:53 AM 72.0 °F - 59.0 °F 64% 30.13 in 10.0 mi SE 12.7 mph - N/A   Clear
4:53 AM 72.0 °F - 60.1 °F 66% 30.13 in 10.0 mi ESE 10.4 mph - N/A   Scattered Clouds
5:53 AM 72.0 °F - 61.0 °F 68% 30.14 in 10.0 mi SE 11.5 mph - N/A   Mostly Cloudy
6:53 AM 72.0 °F - 61.0 °F 68% 30.14 in 10.0 mi SE 11.5 mph - N/A   Mostly Cloudy
7:53 AM 72.0 °F - 61.0 °F 68% 30.16 in 10.0 mi SE 12.7 mph - N/A   Mostly Cloudy
8:53 AM 75.9 °F - 61.0 °F 60% 30.17 in 10.0 mi ESE 15.0 mph 21.9 mph N/A   Partly Cloudy
9:53 AM 78.1 °F - 60.1 °F 54% 30.17 in 10.0 mi SE 18.4 mph 27.6 mph N/A   Partly Cloudy
10:53 AM 78.1 °F - 61.0 °F 56% 30.18 in 10.0 mi SE 23.0 mph 28.8 mph N/A   Mostly Cloudy
11:53 AM 78.1 °F - 63.0 °F 60% 30.17 in 10.0 mi ESE 19.6 mph 28.8 mph N/A   Overcast
12:53 PM 80.1 °F 81.5 °F 63.0 °F 56% 30.15 in 10.0 mi SE 19.6 mph 27.6 mph N/A   Overcast
1:53 PM 80.1 °F 81.7 °F 64.0 °F 58% 30.13 in 10.0 mi ESE 20.7 mph - N/A   Mostly Cloudy
2:53 PM 80.1 °F 81.5 °F 63.0 °F 56% 30.11 in 10.0 mi SE 20.7 mph 24.2 mph N/A   Mostly Cloudy
3:53 PM 79.0 °F - 63.0 °F 58% 30.09 in 10.0 mi SE 17.3 mph - N/A   Mostly Cloudy
4:53 PM 78.1 °F - 63.0 °F 60% 30.08 in 10.0 mi SE 17.3 mph - N/A   Mostly Cloudy
5:53 PM 77.0 °F - 64.0 °F 64% 30.07 in 10.0 mi SE 12.7 mph - N/A   Mostly Cloudy
6:53 PM 77.0 °F - 64.0 °F 64% 30.09 in 10.0 mi ESE 11.5 mph - N/A   Mostly Cloudy
7:53 PM 75.0 °F - 64.9 °F 71% 30.10 in 10.0 mi ESE 9.2 mph - N/A   Partly Cloudy
8:43 PM 73.9 °F - 66.0 °F 76% 30.10 in 10.0 mi ESE 5.8 mph - N/A   Mostly Cloudy
8:53 PM 73.9 °F - 66.0 °F 76% 30.11 in 10.0 mi East 6.9 mph - N/A   Mostly Cloudy
9:26 PM 73.9 °F - 66.9 °F 79% 30.09 in 10.0 mi ESE 6.9 mph - N/A   Scattered Clouds
9:53 PM 73.9 °F - 66.9 °F 79% 30.10 in 10.0 mi ESE 6.9 mph - N/A   Clear
10:53 PM 73.0 °F - 66.9 °F 81% 30.12 in 10.0 mi East 5.8 mph - N/A   Overcast
11:53 PM 73.0 °F - 66.9 °F 81% 30.12 in 10.0 mi SE 6.9 mph - N/A   Overcast